[[{"header":{"parameterUnit":"m.s-1","parameterCategory":1,"la1":30.2991,"la2":30.254,"lo1":-89.0895,"lo2":-89.0444,"dy":0.0017,"dx":0.0017,"nx":28,"ny":28,"refTime":"2024-04-02T09:00:00:Z","depth":0,"parameterNumber":2,"parameterNumberName":"U-component_of_WINDS"},"data":[0,0,0,0,0,0,0,0,0,0,0,0,0,0,0,0,0,0,0,0,0,0,0,0,0,0,0,0,0,0,0,0,0,0,0,0,0,0,0,0,0,0,0,0,0,0,0,0,0,0,0,0,0,0,0,0,0,0,-3.648,-3.6481,0,-3.6561,-3.6562,-3.6563,-3.6556,-3.6554,-3.6553,-3.6552,-3.6633,-3.6636,-3.664,0,0,0,0,0,0,0,0,0,0,0,0,0,-3.632,-3.6323,-3.648,-3.6481,-3.6482,-3.6561,-3.6562,-3.6563,-3.6556,-3.6554,-3.6553,-3.6551,-3.6632,-3.6636,-3.664,0,0,0,0,0,0,0,0,0,0,0,0,0,-3.6394,-3.6324,-3.648,-3.6488,-3.649,-3.656,-3.6562,-3.6563,-3.6556,-3.6554,-3.6552,-3.6551,-3.6631,-3.6636,-3.6641,-3.6708,0,0,-3.6656,-3.6658,0,0,0,0,0,0,0,0,-3.639,-3.64,-3.6486,-3.6488,-3.649,-3.6546,-3.6535,-3.6612,-3.6557,-3.6531,-3.6552,-3.655,-3.6606,-3.6613,-3.6632,-3.6712,-3.6715,-3.6656,-3.6659,-3.6661,-3.6663,0,0,0,0,0,0,0,-3.6385,-3.6396,-3.6512,-3.6487,-3.649,-3.6488,-3.6496,-3.655,-3.6578,-3.6533,-3.6533,-3.6542,-3.6606,-3.6627,-3.6634,-3.6716,-3.6656,-3.666,-3.6664,-3.6665,-3.6855,-3.6857,0,0,0,0,0,0,-3.6378,-3.6392,-3.6509,-3.6514,-3.6434,-3.6492,-3.6502,-3.653,-3.6577,-3.6582,-3.6544,-3.6542,-3.6619,-3.6628,-3.6636,-3.6717,-3.6661,-3.6666,-3.6669,-3.6853,-3.6856,-3.6858,0,0,0,0,0,0,-3.6374,-3.6388,-3.6506,-3.6453,-3.6468,-3.6497,-3.6529,-3.6532,-3.6553,-3.6585,-3.659,-3.656,-3.6618,-3.6629,-3.669,-3.672,-3.6668,-3.6673,-3.6851,-3.6854,-3.6857,-3.688,0,0,0,0,0,0,-3.637,-3.6387,-3.6413,-3.6454,-3.6471,-3.6559,-3.6531,-3.6535,-3.6562,-3.656,-3.6601,-3.6607,-3.6618,-3.6683,-3.6695,-3.6726,-3.6677,-3.6848,-3.6852,-3.6856,-3.6877,-3.6884,-3.689,0,0,0,0,0,-3.6364,-3.6416,-3.6414,-3.6428,-3.6504,-3.656,-3.657,-3.6582,-3.6564,-3.659,-3.6611,-3.6605,-3.6716,-3.6689,-3.6703,-3.6736,-3.6846,-3.6851,-3.6856,-3.6874,-3.6882,-3.6889,0,0,0,0,0,0,-3.6377,-3.6421,-3.642,-3.6487,-3.652,-3.6559,-3.6592,-3.6591,-3.6629,-3.6626,-3.6639,-3.6649,-3.671,-3.6729,-3.6699,-3.6803,-3.6779,-3.6786,-3.6788,-3.6796,-3.6802,-3.6795,-3.6681,0,0,0,0,0,-3.6388,-3.643,-3.6467,-3.6522,-3.6539,-3.6563,-3.6588,-3.6595,-3.6629,-3.6643,-3.6668,-3.6702,-3.6744,-3.6772,-3.6812,-3.6881,-3.6889,-3.691,-3.6917,-3.6922,-3.6927,-3.6964,-3.6974,-3.6874,-3.6873,-3.6873,0,0,-3.641,-3.644,-3.6465,-3.6526,-3.6552,-3.6595,-3.6575,-3.6621,-3.6653,-3.665,-3.6708,-3.6729,-3.6767,-3.6832,-3.6862,-3.685,-3.6957,-3.6928,-3.6932,-3.6934,-3.697,-3.6979,-3.6988,-3.6877,-3.6876,-3.6876,0,0,-3.6472,-3.65,-3.6548,-3.6575,-3.6616,-3.6632,-3.6644,-3.6684,-3.6697,-3.6756,-3.6755,-3.6794,-3.6866,-3.6893,-3.6917,-3.6992,-3.6987,-3.7005,-3.7037,-3.7073,-3.708,-3.7087,-3.7112,-3.7121,-3.7011,-3.7011,-3.7011,0,-3.6494,-3.6559,-3.6573,-3.662,-3.6646,-3.6647,-3.6696,-3.6722,-3.6774,-3.6792,-3.6779,-3.687,-3.6896,-3.6967,-3.6985,-3.7005,-3.7018,-3.6998,-3.7078,-3.7086,-3.7092,-3.7116,-3.7126,-3.7013,-3.7012,-3.7012,-3.7012,0,-3.6584,-3.6629,-3.6664,-3.6714,-3.6745,-3.6793,-3.6814,-3.6843,-3.6848,-3.6865,-3.6926,-3.6958,-3.7004,-3.7022,-3.7027,-3.7094,-3.7085,-3.7076,-3.705,-3.7103,-3.7126,-3.7135,-3.7015,-3.7014,-3.7014,-3.7013,0,0,-3.6653,-3.6712,-3.6724,-3.6747,-3.6793,-3.6828,-3.6877,-3.6923,-3.6947,-3.6984,-3.7024,-3.7087,-3.7078,-3.7104,-3.7113,-3.7145,-3.72,-3.7131,-3.7132,-3.7141,-3.7274,-3.7279,-3.729,-3.7199,-3.7201,-3.7202,-3.727,0,-3.6718,-3.6804,-3.6818,-3.6893,-3.6934,-3.6937,-3.6979,-3.7011,-3.703,-3.7068,-3.7088,-3.7131,-3.7117,-3.7133,-3.7165,-3.7187,-3.7227,-3.7182,-3.7235,-3.7237,-3.7222,-3.7302,-3.7308,-3.737,-3.7279,-3.7281,-3.7282,0,-3.6805,-3.6844,-3.6922,-3.6963,-3.6981,-3.7018,-3.7062,-3.7099,-3.7136,-3.7147,-3.7178,-3.7183,-3.7233,-3.7208,-3.7277,-3.7247,-3.727,-3.7284,-3.7287,-3.729,-3.726,-3.7305,-3.739,-3.7399,-3.7296,-3.7295,-3.7294,0,-3.6845,-3.6918,-3.6974,-3.6994,-3.7043,-3.7069,-3.7091,-3.7126,-3.7153,-3.7192,-3.721,-3.7254,-3.7278,-3.7312,-3.7329,-3.7309,-3.7396,-3.7373,-3.7405,-3.7405,-3.7421,-3.7419,-3.7509,-3.744,-3.744,-3.744,-3.744,0,-3.6915,-3.6962,-3.6993,-3.7027,-3.708,-3.7098,-3.715,-3.7171,-3.7203,-3.7241,-3.7247,-3.7283,-3.7305,-3.7344,-3.7358,-3.7412,-3.7423,-3.7433,-3.7435,-3.7431,-3.7429,-3.7444,-3.7439,-3.7442,-3.7442,-3.7441,-3.7441,0,-3.6967,-3.699,-3.7051,-3.7093,-3.7105,-3.7142,-3.7178,-3.7212,-3.7231,-3.7279,-3.7291,-3.7321,-3.7367,-3.7388,-3.7446,-3.7455,-3.7516,-3.7517,-3.7503,-3.7504,-3.7534,-3.753,-3.7634,-3.7648,-3.7573,-3.7573,-3.7574,0,-3.7009,-3.7045,-3.7092,-3.7118,-3.714,-3.7183,-3.7211,-3.723,-3.7259,-3.7305,-3.7332,-3.7379,-3.7417,-3.7491,-3.7517,-3.7562,-3.7562,-3.7596,-3.7568,-3.7563,-3.756,-3.7557,-3.756,-3.7599,-3.76,-3.7601,-3.7601,0,-3.708,-3.7089,-3.7129,-3.7174,-3.7207,-3.7243,-3.7278,-3.7299,-3.7324,-3.7356,-3.7403,-3.7433,-3.7492,-3.7538,-3.7584,-3.7606,-3.7608,-3.761,-3.762,-3.7614,-3.7603,-3.7608,-3.7514,-3.7607,-3.7606,-3.7606,-3.7606,-3.7605,-3.7127,-3.7159,-3.7197,-3.7241,-3.727,-3.7303,-3.7336,-3.736,-3.74,-3.7449,-3.7458,-3.7509,-3.7546,-3.7608,-3.7632,-3.7672,-3.7664,-3.7678,-3.7681,-3.7684,-3.7684,-3.76,-3.7681,-3.768,-3.768,-3.768,-3.768,0,-3.7196,-3.722,-3.7261,-3.731,-3.7345,-3.7346,-3.7385,-3.7414,-3.7458,-3.7493,-3.7531,-3.7585,-3.763,-3.7661,-3.7707,-3.7733,-3.7734,-3.7744,-3.7741,-3.7746,-3.769,-3.7676,-3.7741,-3.7741,-3.7741,-3.7741,-3.7741,-3.7741,-3.7236,-3.729,-3.7304,-3.7373,-3.7398,-3.7447,-3.7469,-3.75,-3.7528,-3.7589,-3.7626,-3.7646,-3.768,-3.7728,-3.7769,-3.7777,-3.7793,-3.7802,-3.7809,-3.7756,-3.775,-3.7743,-3.773,-3.7806,-3.7806,-3.7861,-3.7862,-3.7862]},{"header":{"parameterUnit":"m.s-1","parameterCategory":1,"la1":30.2991,"la2":30.254,"lo1":-89.0895,"lo2":-89.0444,"dy":0.0017,"dx":0.0017,"nx":28,"ny":28,"refTime":"2024-04-02T09:00:00:Z","depth":0,"parameterNumber":3,"parameterNumberName":"V-component_of_WINDS"},"data":[0,0,0,0,0,0,0,0,0,0,0,0,0,0,0,0,0,0,0,0,0,0,0,0,0,0,0,0,0,0,0,0,0,0,0,0,0,0,0,0,0,0,0,0,0,0,0,0,0,0,0,0,0,0,0,0,0,0,4.3518,4.3519,0,4.3641,4.3643,4.3644,4.3679,4.3679,4.3678,4.3677,4.3802,4.3806,4.381,0,0,0,0,0,0,0,0,0,0,0,0,0,4.3311,4.3315,4.3517,4.3519,4.3521,4.3641,4.3643,4.3644,4.368,4.3679,4.3678,4.3677,4.3801,4.3805,4.381,0,0,0,0,0,0,0,0,0,0,0,0,0,4.3414,4.3316,4.3517,4.3553,4.3557,4.3641,4.3643,4.3645,4.368,4.3679,4.3678,4.3677,4.3799,4.3805,4.3811,4.3867,0,0,4.3829,4.3831,0,0,0,0,0,0,0,0,4.3408,4.3422,4.3546,4.355,4.3555,4.3644,4.3616,4.3719,4.368,4.3633,4.3677,4.3676,4.375,4.376,4.3785,4.3873,4.3879,4.3829,4.3833,4.3835,4.3837,0,0,0,0,0,0,0,4.3401,4.3417,4.3566,4.3548,4.3553,4.3562,4.3576,4.3636,4.3696,4.3637,4.364,4.3654,4.3752,4.378,4.3789,4.388,4.3829,4.3834,4.3838,4.384,4.4024,4.4026,0,0,0,0,0,0,4.3388,4.341,4.3562,4.357,4.3478,4.3567,4.3582,4.3616,4.3695,4.3706,4.3655,4.3655,4.377,4.3782,4.3793,4.3867,4.3835,4.3841,4.3844,4.4023,4.4025,4.4026,0,0,0,0,0,0,4.3383,4.3401,4.3557,4.3491,4.3512,4.3571,4.361,4.3619,4.3647,4.3709,4.3719,4.3672,4.377,4.3785,4.385,4.3872,4.3844,4.3849,4.4021,4.4024,4.4025,4.4014,0,0,0,0,0,0,4.3377,4.3399,4.3421,4.3491,4.3515,4.3612,4.3611,4.3623,4.3657,4.3659,4.3727,4.3738,4.377,4.3841,4.3855,4.388,4.3854,4.402,4.4022,4.4025,4.4013,4.4016,4.4018,0,0,0,0,0,4.337,4.3412,4.3422,4.3441,4.3544,4.3613,4.3627,4.3664,4.3659,4.3682,4.3722,4.3735,4.3867,4.3847,4.3864,4.389,4.4019,4.4022,4.4025,4.4012,4.4015,4.4018,0,0,0,0,0,0,4.3342,4.3422,4.3434,4.35,4.355,4.3619,4.3649,4.3666,4.3717,4.3717,4.376,4.3775,4.3837,4.387,4.3846,4.3951,4.3943,4.395,4.3928,4.3931,4.3934,4.3925,4.3859,0,0,0,0,0,4.3344,4.3394,4.346,4.3512,4.3537,4.3589,4.362,4.3645,4.3697,4.3718,4.3763,4.3813,4.3866,4.39,4.3952,4.4017,4.4034,4.4044,4.4046,4.4048,4.4054,4.4094,4.41,4.4036,4.4036,4.4036,0,0,4.3347,4.3397,4.3426,4.3508,4.355,4.3601,4.3606,4.3659,4.3698,4.3726,4.3791,4.3826,4.3885,4.3951,4.3982,4.398,4.4075,4.4052,4.4053,4.4058,4.4098,4.4104,4.4109,4.4038,4.4038,4.4037,0,0,4.3381,4.3423,4.3473,4.3514,4.3577,4.3612,4.3624,4.3691,4.3716,4.3782,4.3805,4.3851,4.3941,4.3983,4.4016,4.4068,4.4083,4.4083,4.4097,4.4136,4.4141,4.4146,4.4167,4.4174,4.4089,4.4089,4.4089,0,4.3378,4.3456,4.3495,4.3549,4.3585,4.3615,4.3666,4.3704,4.378,4.3805,4.3801,4.3917,4.3958,4.4036,4.4049,4.4074,4.409,4.4077,4.4137,4.4142,4.4147,4.4168,4.4176,4.4088,4.4088,4.4088,4.4088,0,4.345,4.3504,4.3537,4.3612,4.3652,4.3703,4.3751,4.3787,4.3808,4.3843,4.3911,4.3962,4.4026,4.4046,4.4066,4.4128,4.4125,4.4128,4.4122,4.4153,4.4173,4.4181,4.4088,4.4088,4.4088,4.4088,0,0,4.347,4.3568,4.3579,4.3615,4.3688,4.373,4.3784,4.3848,4.3879,4.393,4.3978,4.4054,4.4059,4.4096,4.4121,4.4155,4.4197,4.4155,4.4157,4.4163,4.4271,4.4269,4.4278,4.4206,4.4208,4.4209,4.4267,0,4.3515,4.3613,4.3651,4.3731,4.3783,4.3812,4.3859,4.3909,4.3943,4.3992,4.403,4.4085,4.4085,4.4109,4.4143,4.4184,4.4219,4.418,4.4252,4.4254,4.4239,4.4288,4.4286,4.4338,4.4274,4.4276,4.4277,0,4.358,4.3635,4.3721,4.379,4.3813,4.3855,4.3918,4.3964,4.4022,4.4045,4.4088,4.4112,4.417,4.4159,4.424,4.4213,4.4245,4.4269,4.4272,4.4282,4.4269,4.4302,4.4355,4.4364,4.4289,4.4288,4.4287,0,4.3589,4.3684,4.3749,4.3778,4.3859,4.3888,4.3924,4.398,4.4017,4.4072,4.4097,4.4157,4.4191,4.4237,4.4277,4.4265,4.4356,4.4347,4.4378,4.4377,4.4398,4.4396,4.4459,4.4413,4.4413,4.4413,4.4413,0,4.3637,4.3689,4.3755,4.3794,4.3854,4.3897,4.3955,4.3992,4.4043,4.4091,4.4118,4.4163,4.4212,4.4263,4.4294,4.4359,4.4373,4.4394,4.4402,4.4393,4.4391,4.4416,4.4414,4.4415,4.4415,4.4414,4.4414,0,4.3657,4.3703,4.3776,4.3848,4.3868,4.3909,4.397,4.4011,4.4047,4.4107,4.4124,4.4181,4.4242,4.4287,4.4365,4.4387,4.4457,4.4463,4.4438,4.4443,4.4472,4.447,4.4556,4.457,4.4512,4.4512,4.4513,0,4.3686,4.3727,4.3804,4.3839,4.3875,4.393,4.3969,4.4013,4.4052,4.4122,4.4155,4.4219,4.4272,4.437,4.4418,4.4479,4.4489,4.4515,4.4498,4.4489,4.4493,4.4491,4.4497,4.4518,4.4518,4.4519,4.4519,0,4.3733,4.3754,4.3809,4.3873,4.3919,4.3971,4.4023,4.405,4.4104,4.4146,4.4211,4.4253,4.4335,4.4399,4.4465,4.4501,4.452,4.4523,4.4535,4.4527,4.4512,4.4523,4.4448,4.4522,4.4521,4.4521,4.4521,4.4521,4.376,4.3799,4.3861,4.3922,4.3967,4.4016,4.4058,4.4101,4.4155,4.4227,4.4249,4.4316,4.4375,4.4466,4.4504,4.4557,4.4556,4.4571,4.4575,4.4579,4.458,4.4501,4.4569,4.4569,4.4569,4.4569,4.4569,0,4.3811,4.3852,4.3908,4.3982,4.4031,4.4044,4.4104,4.4144,4.4203,4.4257,4.431,4.4385,4.4448,4.4501,4.4567,4.4599,4.461,4.4615,4.4615,4.4623,4.4576,4.4562,4.4606,4.4606,4.4606,4.4606,4.4606,4.4606,4.3843,4.3912,4.394,4.4032,4.4072,4.414,4.4173,4.4219,4.4262,4.4346,4.4399,4.4434,4.4488,4.4558,4.4616,4.4631,4.4654,4.4658,4.4675,4.463,4.4626,4.4622,4.4609,4.4663,4.4663,4.4718,4.4719,4.4719]}]]